FW4661 Weather Reports


time (UTC)temp
C
wind
direction
speed
KPH
gust
KPH
rain 1hr
cm
rain 24hr
cm
rain mn
cm
humidity
%
barometer
mb
20260510043215 11 138 0.0 101.4 0.00 0.00 0.00 68 1021.6
20260510042003 11 123 0.0 37.0 0.00 0.00 0.00 67 1021.3
20260510041004 11 135 0.0 59.5 0.00 0.00 0.00 67 1021.0
20260510040004 11 152 8.0 88.5 0.00 0.00 0.00 67 1020.9
20260510035003 11 121 0.0 57.9 0.00 0.00 0.00 65 1020.4
20260510034004 11 138 9.7 72.4 0.00 0.00 0.00 63 1020.5
20260510033004 11 69 0.0 43.5 0.00 0.00 0.00 61 1020.2
20260510032003 11 123 0.0 78.9 0.00 0.00 0.00 60 1019.8
20260510031003 11 159 0.0 57.9 0.00 0.00 0.00 59 1019.7
20260510030004 11 123 24.1 189.9 0.00 0.00 0.00 59 1019.6
20260510025003 11 174 0.0 151.3 0.00 0.00 0.00 58 1019.1
20260510024003 11 117 33.8 215.7 0.00 0.00 0.00 57 1018.8
20260510023004 12 156 16.1 156.1 0.00 0.00 0.00 55 1018.8
20260510022003 12 162 22.5 143.2 0.00 0.00 0.00 55 1018.3
20260510021003 12 177 9.7 130.4 0.00 0.00 0.00 56 1018.2
20260510020214 12 186 64.4 130.4 0.00 0.00 0.00 56 1018.0
20260510015003 12 147 54.7 196.3 0.00 0.00 0.00 56 1017.6
20260510014004 12 135 66.0 196.3 0.00 0.00 0.00 58 1017.2
20260510013004 12 142 20.9 135.2 0.00 0.00 0.00 60 1017.2
20260510012004 12 132 38.6 204.4 0.00 0.00 0.00 61 1016.9
20260510011003 11 195 109.4 204.4 0.00 0.00 0.00 62 1016.6
20260510010004 11 106 1.6 189.9 0.00 0.00 0.00 64 1016.7
20260510005215 11 164 109.4 189.9 0.00 0.00 0.00 65 1016.5
20260510004003 12 161 99.8 196.3 0.00 0.00 0.00 64 1016.7
20260510003004 12 172 103.0 210.8 0.00 0.00 0.00 64 1016.7
20260510002004 12 175 91.7 180.2 0.00 0.00 0.00 64 1015.9
20260510001003 12 169 83.7 214.0 0.00 0.00 0.00 64 1015.9
20260510000215 12 169 64.4 194.7 0.00 0.00 0.00 62 1016.4
20260509235003 13 120 112.7 212.4 0.00 0.00 0.00 61 1016.2
20260509234003 13 149 40.2 177.0 0.00 0.00 0.00 61 1015.7
20260509233004 13 131 16.1 138.4 0.00 0.00 0.00 62 1015.9
20260509232004 14 146 75.6 169.0 0.00 0.00 0.00 61 1016.0
20260509231003 14 140 75.6 130.4 0.00 0.00 0.00 61 1016.1
20260509230004 15 140 6.4 51.5 0.00 0.00 0.00 61 1015.8
20260509225217 15 137 4.8 69.2 0.00 0.00 0.00 60 1015.7
20260509224004 15 137 16.1 69.2 0.00 0.00 0.00 61 1014.8
20260509223213 16 139 14.5 53.1 0.00 0.00 0.00 61 1015.1
20260509222004 16 132 12.9 51.5 0.00 0.00 0.00 61 1013.9
20260509221004 16 159 22.5 43.5 0.00 0.00 0.00 61 1013.4
20260509220003 15 175 4.8 46.7 0.00 0.00 0.00 62 1013.0
20260509215217 15 200 4.8 57.9 0.00 0.00 0.00 63 1013.2
20260509214003 15 194 8.0 78.9 0.00 0.00 0.00 61 1013.0
20260509213003 14 180 22.5 78.9 0.00 0.00 0.00 62 1013.0
20260509212003 13 197 6.4 78.9 0.00 0.00 0.00 70 1012.7
20260509211003 12 201 6.4 27.4 0.00 0.00 0.00 78 1012.4
20260509210003 11 180 6.4 62.8 0.00 0.00 0.00 84 1012.3
20260509205003 9 212 6.4 40.2 0.00 0.00 0.00 85 1011.7
20260509204003 7 222 3.2 27.4 0.00 0.00 0.00 83 1011.7
20260509203003 7 199 0.0 6.4 0.00 0.00 0.00 81 1011.4
20260509202004 6 225 0.0 6.4 0.00 0.00 0.00 81 1011.4
20260509201217 6 220 0.0 14.5 0.00 0.00 0.00 81 1011.2
20260509200004 6 208 0.0 17.7 0.00 0.00 0.00 81 1011.0
20260509195003 6 180 0.0 1.6 0.00 0.00 0.00 80 1010.9
20260509194004 6 218 0.0 27.4 0.00 0.00 0.00 80 1011.0
20260509193003 6 195 0.0 8.0 0.00 0.00 0.00 80 1010.9
20260509192003 6 225 0.0 4.8 0.00 0.00 0.00 80 1010.7
20260509191003 6 225 0.0 3.2 0.00 0.00 0.00 80 1010.6
20260509190004 6 197 0.0 3.2 0.00 0.00 0.00 80 1010.4
20260509185003 7 192 0.0 6.4 0.00 0.00 0.00 79 1010.4
20260509184004 7 180 0.0 4.8 0.00 0.00 0.00 79 1010.1
20260509183003 7 214 0.0 3.2 0.00 0.00 0.00 79 1010.3
20260509182003 7 237 0.0 14.5 0.00 0.00 0.00 79 1010.4
20260509181004 7 212 0.0 11.3 0.00 0.00 0.00 79 1010.3
20260509180214 7 273 1.6 6.4 0.00 0.00 0.00 79 1009.8
20260509175003 7 220 0.0 11.3 0.00 0.00 0.00 79 1009.8
20260509174216 7 225 0.0 17.7 0.00 0.00 0.00 79 1009.7
20260509173217 7 261 0.0 11.3 0.00 0.00 0.00 79 1009.7
20260509172003 7 0 0.0 0.0 0.00 0.00 0.00 79 1009.6
20260509171004 7 0 0.0 0.0 0.00 0.00 0.00 78 1009.5
20260509170004 7 0 0.0 0.0 0.00 0.00 0.00 78 1009.5
20260509165003 7 0 0.0 0.0 0.00 0.00 0.00 78 1009.7
20260509164003 7 0 0.0 0.0 0.00 0.00 0.00 78 1009.4
20260509163004 7 0 0.0 0.0 0.00 0.00 0.00 78 1009.2
20260509162003 7 0 0.0 0.0 0.00 0.00 0.00 78 1009.3
20260509161003 7 0 0.0 0.0 0.00 0.00 0.00 79 1009.5
20260509160215 7 0 0.0 0.0 0.00 0.00 0.00 79 1009.2
20260509155216 7 0 0.0 0.0 0.00 0.00 0.00 79 1009.3
20260509154003 8 0 0.0 0.0 0.00 0.00 0.00 79 1009.8
20260509153004 8 0 0.0 0.0 0.00 0.00 0.00 79 1009.4
20260509152214 8 0 0.0 0.0 0.00 0.00 0.00 80 1009.5
20260509151004 8 225 0.0 6.4 0.00 0.00 0.00 81 1009.7
20260509150004 8 0 0.0 0.0 0.00 0.00 0.00 82 1009.9
20260509145003 7 357 0.0 14.5 0.00 0.00 0.00 82 1010.1
20260509144213 7 353 0.0 14.5 0.00 0.00 0.00 80 1010.0
20260509143004 7 0 0.0 0.0 0.00 0.00 0.00 80 1010.4
20260509142003 7 0 0.0 0.0 0.00 0.00 0.00 80 1010.5
20260509141003 7 0 0.0 0.0 0.00 0.00 0.00 79 1010.6
20260509140005 7 0 0.0 0.0 0.00 0.00 0.00 79 1010.7
20260509135004 7 0 0.0 0.0 0.00 0.00 0.00 79 1010.7
20260509134003 7 0 0.0 0.0 0.00 0.00 0.00 79 1010.9
20260509133004 7 0 0.0 0.0 0.00 0.00 0.00 79 1011.0
20260509132004 8 0 0.0 0.0 0.00 0.00 0.00 80 1011.1
20260509131003 8 0 0.0 0.0 0.00 0.00 0.00 81 1011.3
20260509130004 8 0 0.0 0.0 0.00 0.00 0.00 81 1011.6
20260509125003 8 0 0.0 0.0 0.00 0.00 0.00 82 1011.5
20260509124214 8 0 0.0 0.0 0.00 0.00 0.00 82 1011.7
20260509123003 8 0 0.0 0.0 0.00 0.00 0.00 82 1011.6
20260509122004 8 0 0.0 0.0 0.00 0.00 0.00 82 1011.7
20260509121003 8 0 0.0 0.0 0.00 0.00 0.00 82 1011.8
20260509120004 8 0 0.0 0.0 0.00 0.00 0.00 82 1011.9
20260509115004 8 0 0.0 0.0 0.00 0.00 0.00 82 1011.7
20260509114004 8 0 0.0 0.0 0.00 0.00 0.00 82 1011.7
20260509113003 8 0 0.0 0.0 0.00 0.00 0.00 82 1012.0
20260509112216 8 0 0.0 0.0 0.00 0.00 0.00 82 1012.0
20260509111003 8 0 0.0 0.0 0.00 0.00 0.00 82 1011.9
20260509110213 8 0 0.0 0.0 0.00 0.00 0.00 82 1012.2
20260509105004 8 0 0.0 0.0 0.00 0.00 0.00 82 1012.0
20260509104004 8 0 0.0 0.0 0.00 0.00 0.00 82 1011.8
20260509103003 8 0 0.0 0.0 0.00 0.00 0.00 82 1011.5
20260509102003 8 0 0.0 0.0 0.00 0.00 0.00 82 1011.7
20260509101004 8 0 0.0 0.0 0.00 0.00 0.00 82 1011.6
20260509100004 8 0 0.0 0.0 0.00 0.00 0.00 81 1011.4
20260509095215 8 0 0.0 0.0 0.00 0.00 0.00 81 1011.5
20260509094004 9 0 0.0 0.0 0.00 0.00 0.00 81 1011.7
20260509093003 9 0 0.0 0.0 0.00 0.00 0.00 82 1011.2
20260509092003 9 0 0.0 0.0 0.00 0.00 0.00 82 1011.3
20260509091214 10 0 0.0 0.0 0.00 0.00 0.00 82 1011.5
20260509090003 10 0 0.0 0.0 0.00 0.00 0.00 81 1011.4
20260509085215 10 0 0.0 0.0 0.00 0.00 0.00 81 1011.5
20260509084004 10 0 0.0 0.0 0.00 0.00 0.00 81 1011.5
20260509083003 10 0 0.0 0.0 0.00 0.00 0.00 81 1011.4
20260509082003 10 0 0.0 0.0 0.00 0.00 0.00 80 1011.2
20260509081214 10 0 0.0 0.0 0.00 0.00 0.00 80 1011.3
20260509080004 10 0 0.0 0.0 0.00 0.00 0.00 80 1011.3
20260509075003 11 0 0.0 0.0 0.00 0.00 0.00 79 1011.4
20260509074004 11 0 0.0 0.0 0.00 0.00 0.00 79 1010.9
20260509073004 11 0 0.0 0.0 0.00 0.00 0.00 78 1010.9
20260509072003 11 0 0.0 0.0 0.00 0.00 0.00 78 1010.8
20260509071004 12 0 0.0 0.0 0.00 0.00 0.00 78 1010.5
20260509070216 12 0 0.0 0.0 0.00 0.00 0.00 78 1010.5
20260509065003 12 0 0.0 0.0 0.00 0.00 0.00 79 1010.5
20260509064003 13 0 0.0 0.0 0.00 0.00 0.00 78 1010.3
20260509063004 13 0 0.0 0.0 0.00 0.00 0.00 78 1010.4
20260509062003 13 360 0.0 1.6 0.00 0.00 0.00 78 1010.4
20260509061003 13 360 0.0 3.2 0.00 0.00 0.00 78 1010.6
20260509060216 13 336 0.0 6.4 0.00 0.00 0.00 78 1010.6
20260509055003 13 0 0.0 0.0 0.00 0.00 0.00 78 1010.4
20260509054004 13 0 0.0 0.0 0.00 0.00 0.00 79 1010.8
20260509053214 13 345 0.0 11.3 0.00 0.00 0.00 78 1010.8
20260509052215 13 354 0.0 22.5 0.00 0.00 0.00 77 1010.8
20260509051216 14 2 0.0 32.2 0.00 0.00 0.00 77 1010.5
20260509050004 14 341 4.8 32.2 0.00 0.00 0.00 76 1010.6
20260509045003 14 355 0.0 38.6 0.00 0.00 0.00 76 1010.7
20260509044003 14 360 0.0 1.6 0.00 0.00 0.00 76 1010.9